Flag for Sweden Weather past 2 weeks in Linköping, Sweden

Now
36 °F

Light rain. Passing clouds.


Feels Like: 27 °F
Forecast: 35 / 42 °F
Wind: 13 mph from Southeast

Location: Linkoping / Saab

Current Time: Mar 29, 2015 at 5:51:24 AM

Latest Report: Mar 29, 2015 at 5:20 AM


Visibility: 6 mi

Pressure: 29.50 "Hg

Humidity: 93%

Dew point: 34 °F

Location of LinköpingLocation

Historic Weather in Linköping — Graph

°F

Linköping temperature yesterday

Maximum temperature yesterday: 48 °F (at 2:20 PM)
Minimum temperature yesterday: 34 °F (at 1:50 AM)
Average temperature yesterday: 40 °F

Past Weeks' High & Low Weather Summary

 TemperatureHumidityPressure
High57 °F (Mar 18, 3:50 PM)100% (Mar 14, 6:20 AM)30.86 "Hg (Mar 14, 6:20 AM)
Low25 °F (Mar 14, 3:50 AM)26% (Mar 18, 3:20 PM)29.53 "Hg (Mar 29, 4:20 AM)
Average38 °F77%30.21 "Hg
* Reported Mar 14 3:20 AM — Mar 29 4:20 AM, Linköping, Weather by CustomWeather, © 2015

Note: Actual official high and low records may vary slightly from our data, if they occured in-between our weather recording intervals... More about our weather records

Advertising

Linköping weather history for previous 24 hours

 ConditionsComfort  
Time TempWeatherWind HumidityBarometerVisibility
4:20 AM
Sun, Mar 29
36 °FDrizzle. Overcast.12 mph93%29.53 "HgN/A
3:50 AM37 °FLight rain. Overcast.12 mph81%29.56 "HgN/A
3:20 AM39 °FPassing clouds.10 mph70%29.56 "HgN/A
1:50 AM39 °FPassing clouds.12 mph70%29.59 "HgN/A
1:20 AM39 °FChilly.10 mph70%29.62 "HgN/A
12:50 AM37 °FChilly.8 mph75%29.65 "HgN/A
12:20 AM37 °FChilly.7 mph75%29.65 "HgN/A
11:50 PM
Sat, Mar 28
37 °FChilly.7 mph75%29.68 "HgN/A
11:20 PM36 °FChilly.7 mph81%29.71 "HgN/A
10:50 PM36 °FClear.7 mph81%29.71 "Hg10 mi
10:20 PM36 °FClear.5 mph81%29.71 "Hg10 mi
9:50 PM37 °FClear.5 mph75%29.74 "Hg10 mi
9:20 PM37 °FChilly.6 mph75%29.74 "HgN/A
8:50 PM39 °FChilly.7 mph75%29.77 "HgN/A
8:20 PM37 °FChilly.6 mph81%29.77 "HgN/A
7:50 PM37 °FChilly.6 mph81%29.77 "HgN/A
7:20 PM39 °FChilly.3 mph75%29.80 "HgN/A
6:50 PM41 °FQuite cool.6 mph70%29.80 "HgN/A
6:20 PM41 °FQuite cool.6 mph70%29.80 "HgN/A
5:50 PM45 °FQuite cool.2 mph57%29.83 "HgN/A
5:20 PM46 °FSunny.2 mph53%29.83 "Hg10 mi
4:50 PM48 °FPassing clouds.5 mph54%29.83 "HgN/A
4:20 PM48 °FPassing clouds.5 mph54%29.86 "HgN/A
3:50 PM48 °FPassing clouds.5 mph54%29.86 "HgN/A
3:20 PM48 °FCool.7 mph54%29.86 "HgN/A
2:50 PM48 °FPassing clouds.8 mph54%29.89 "HgN/A
2:20 PM48 °FPassing clouds.6 mph58%29.89 "HgN/A
1:50 PM45 °FPassing clouds.8 mph61%29.89 "HgN/A
1:20 PM45 °FPassing clouds.12 mph66%29.89 "HgN/A
12:50 PM46 °FScattered clouds.12 mph66%29.92 "HgN/A
12:20 PM43 °FScattered clouds.12 mph71%29.92 "HgN/A
11:50 AM43 °FScattered clouds.12 mph76%29.92 "HgN/A
11:20 AM41 °FPartly sunny.13 mph76%29.92 "HgN/A
10:50 AM43 °FPartly sunny.9 mph71%29.92 "HgN/A
10:20 AM41 °FMostly cloudy.12 mph76%29.92 "HgN/A
9:50 AM39 °FOvercast.9 mph81%29.92 "HgN/A
9:20 AM39 °FPartly sunny.9 mph81%29.92 "HgN/A
8:50 AM39 °FChilly.8 mph81%29.92 "HgN/A
8:20 AM37 °FChilly.8 mph87%29.92 "HgN/A
7:50 AM36 °FScattered clouds.7 mph93%29.92 "HgN/A
7:20 AM36 °FPassing clouds.7 mph93%29.92 "HgN/A
6:50 AM36 °FScattered clouds.6 mph93%29.92 "HgN/A
6:20 AM36 °FPassing clouds.6 mph87%29.89 "HgN/A
5:50 AM36 °FPartly sunny.7 mph93%29.89 "HgN/A
5:20 AM36 °FMostly cloudy.5 mph93%29.89 "HgN/A
Weather by CustomWeather, © 2015

See weather overviewHow to use our weather pages